Location: Miles
(41.4492°N, 81.6087°W)
Time: 14:19:38
(UTC+00:00)

Tiros 1 despin weight - All Passes

Search period start: 13 September 2024 00:00
Search period end: 23 September 2024 00:00
Orbit: 573 x 617 km, 48.2° (Epoch: 12 September)

Date Brightness Start Highest point End Pass type
(mag) Time Alt. Az. Time Alt. Az. Time Alt. Az.
13 Sep - 08:17:25 10° SSW 08:21:20 29° SE 08:25:16 10° ENE visible
13 Sep - 09:57:37 10° WSW 10:02:09 69° NNW 10:06:42 10° ENE visible
13 Sep - 11:39:31 10° WNW 11:43:44 35° N 11:47:56 10° ENE daylight
13 Sep - 13:21:06 10° WNW 13:25:29 44° NNE 13:29:49 10° E daylight
13 Sep - 15:02:13 10° WNW 15:06:42 62° SSW 15:11:08 10° SE daylight
13 Sep - 16:45:24 10° WSW 16:47:03 12° SW 16:48:41 10° SSW daylight
14 Sep - 08:25:52 10° SW 08:30:12 48° SE 08:34:35 10° ENE visible
14 Sep - 10:06:52 10° W 10:11:17 50° NNW 10:15:45 10° ENE visible
14 Sep - 11:48:49 10° WNW 11:53:00 34° N 11:57:10 10° ENE daylight
14 Sep - 13:30:09 10° WNW 13:34:39 58° NNE 13:39:06 10° E daylight
14 Sep - 15:11:25 10° WNW 15:15:36 38° SW 15:19:45 10° SSE daylight
15 Sep - 06:55:55 10° S 06:58:38 16° SE 07:01:23 10° E visible
15 Sep - 08:34:36 10° SW 08:39:07 77° SSE 08:43:40 10° ENE visible
15 Sep - 10:16:10 10° W 10:20:27 40° NNW 10:24:46 10° ENE visible
15 Sep - 11:57:59 10° WNW 12:02:14 37° N 12:06:27 10° ENE daylight
15 Sep - 13:39:08 10° WNW 13:43:42 82° NNE 13:48:14 10° ESE daylight
15 Sep - 15:20:50 10° W 15:24:23 23° SW 15:27:54 10° S daylight
16 Sep - 07:03:33 10° SSW 07:07:19 27° SE 07:11:08 10° E visible
16 Sep - 08:43:35 10° WSW 08:48:05 72° NNW 08:52:38 10° ENE visible
16 Sep - 10:25:26 10° WNW 10:29:37 36° N 10:33:50 10° ENE visible
16 Sep - 12:07:01 10° WNW 12:11:22 43° NNE 12:15:43 10° E daylight
16 Sep - 13:48:07 10° WNW 13:52:39 66° SSW 13:57:06 10° SE daylight
16 Sep - 15:30:55 10° WSW 15:33:01 13° SW 15:35:07 10° SSW daylight
17 Sep - 07:11:48 10° SW 07:16:03 44° SE 07:20:23 10° ENE visible
17 Sep - 08:52:40 10° W 08:57:05 52° NNW 09:01:33 10° ENE visible
17 Sep - 10:34:36 10° WNW 10:38:47 34° N 10:42:58 10° ENE visible
17 Sep - 12:15:57 10° WNW 12:20:26 55° NNE 12:24:54 10° E daylight
17 Sep - 13:57:10 10° WNW 14:01:26 41° SW 14:05:39 10° SSE daylight
18 Sep - 05:42:01 10° SSE 05:44:25 14° SE 05:46:51 10° E night (unlit)
18 Sep - 07:20:22 10° SW 07:24:50 72° SSE 07:29:22 10° ENE visible
18 Sep - 09:01:50 10° W 09:06:08 41° NNW 09:10:28 10° ENE visible
18 Sep - 10:43:40 10° WNW 10:47:53 36° N 10:52:06 10° ENE visible
18 Sep - 12:24:49 10° WNW 12:29:23 77° NNE 12:33:55 10° ESE daylight
18 Sep - 14:06:25 10° W 14:10:06 25° SW 14:13:46 10° SSE daylight
19 Sep - 05:49:21 10° S 05:52:58 25° SE 05:56:38 10° E night (unlit)
19 Sep - 07:29:11 10° WSW 07:33:40 77° NNW 07:38:14 10° ENE visible
19 Sep - 09:10:59 10° WNW 09:15:10 36° N 09:19:23 10° ENE visible
19 Sep - 10:52:36 10° WNW 10:56:55 42° NNE 11:01:15 10° E daylight
19 Sep - 12:33:40 10° WNW 12:38:13 72° SSW 12:42:42 10° SE daylight
19 Sep - 14:16:10 10° W 14:18:38 15° SW 14:21:06 10° SSW daylight
20 Sep - 05:57:23 10° SSW 06:01:34 40° SE 06:05:48 10° ENE night (unlit)
20 Sep - 07:38:08 10° W 07:42:33 55° NNW 07:47:01 10° ENE visible
20 Sep - 09:20:03 10° WNW 09:24:12 34° N 09:28:22 10° ENE visible
20 Sep - 11:01:24 10° WNW 11:05:52 52° NNE 11:10:19 10° E daylight
20 Sep - 12:42:34 10° WNW 12:46:54 44° SW 12:51:12 10° SE daylight
21 Sep - 04:27:52 10° SSE 04:29:52 13° SE 04:31:52 10° ESE night (unlit)
21 Sep - 06:05:48 10° SW 06:10:13 66° SSE 06:14:42 10° ENE night (unlit)
21 Sep - 07:47:09 10° W 07:51:27 43° NNW 07:55:47 10° ENE visible
21 Sep - 09:29:00 10° WNW 09:33:12 35° N 09:37:23 10° ENE visible
21 Sep - 11:10:10 10° WNW 11:14:42 72° NNE 11:19:14 10° ESE daylight
21 Sep - 12:51:38 10° W 12:55:28 27° SW 12:59:17 10° SSE daylight
22 Sep - 04:34:50 10° S 04:38:16 22° SE 04:41:45 10° E night (unlit)
22 Sep - 06:14:27 10° WSW 06:18:55 82° NNW 06:23:27 10° ENE night (unlit)
22 Sep - 07:56:11 10° WNW 08:00:22 37° N 08:04:35 10° ENE visible
22 Sep - 09:37:49 10° WNW 09:42:06 40° NNE 09:46:24 10° E visible
22 Sep - 11:18:53 10° WNW 11:23:26 77° SSW 11:27:57 10° SE daylight
22 Sep - 13:01:07 10° W 13:03:54 16° SW 13:06:41 10° S daylight
